TimeEDT,TemperatureF,Dew PointF,Humidity,Sea Level PressureIn,VisibilityMPH,Wind Direction,Wind SpeedMPH,Gust SpeedMPH,PrecipitationIn,Events,Conditions,WindDirDegrees,DateUTC
12:53 AM,75.9,66.9,74,30.05,10.0,SSE,4.6,-,N/A,,Clear,160,2013-06-23 04:53:00
1:53 AM,75.9,66.0,71,30.06,10.0,SSW,5.8,-,N/A,,Clear,200,2013-06-23 05:53:00
2:53 AM,75.0,66.0,73,30.05,10.0,SW,4.6,-,N/A,,Clear,230,2013-06-23 06:53:00
3:53 AM,75.0,66.0,73,30.06,10.0,SSW,4.6,-,N/A,,Partly Cloudy,200,2013-06-23 07:53:00
4:53 AM,73.9,66.0,76,30.06,10.0,South,4.6,-,N/A,,Clear,190,2013-06-23 08:53:00
5:53 AM,73.9,66.0,76,30.06,10.0,South,8.1,-,N/A,,Clear,180,2013-06-23 09:53:00
6:53 AM,75.0,66.0,73,30.08,9.0,South,5.8,-,N/A,,Clear,170,2013-06-23 10:53:00
7:53 AM,77.0,66.0,69,30.09,10.0,South,6.9,-,N/A,,Clear,190,2013-06-23 11:53:00
8:53 AM,80.1,66.0,62,30.09,10.0,South,10.4,-,N/A,,Clear,190,2013-06-23 12:53:00
9:53 AM,81.0,66.9,62,30.10,10.0,West,8.1,-,N/A,,Clear,260,2013-06-23 13:53:00
10:53 AM,84.0,66.9,56,30.09,10.0,WSW,10.4,-,N/A,,Clear,250,2013-06-23 14:53:00
11:53 AM,87.1,66.0,49,30.06,10.0,SW,12.7,19.6,N/A,,Clear,230,2013-06-23 15:53:00
12:53 PM,87.1,66.9,51,30.06,10.0,WSW,13.8,-,N/A,,Clear,250,2013-06-23 16:53:00
1:53 PM,88.0,66.9,49,30.05,10.0,WSW,8.1,17.3,N/A,,Scattered Clouds,250,2013-06-23 17:53:00
2:53 PM,87.1,68.0,53,30.04,10.0,West,9.2,-,N/A,,Mostly Cloudy,270,2013-06-23 18:53:00
3:53 PM,84.0,70.0,63,30.03,10.0,NNW,5.8,-,N/A,,Mostly Cloudy,340,2013-06-23 19:53:00
4:53 PM,84.0,71.1,65,30.02,10.0,NNE,4.6,-,N/A,,Scattered Clouds,20,2013-06-23 20:53:00
5:53 PM,82.0,69.1,65,30.01,10.0,NE,6.9,-,N/A,,Scattered Clouds,50,2013-06-23 21:53:00
6:53 PM,81.0,69.1,67,30.00,10.0,NE,5.8,-,N/A,,Partly Cloudy,50,2013-06-23 22:53:00
7:53 PM,84.0,68.0,58,29.99,10.0,Calm,Calm,-,N/A,,Clear,0,2013-06-23 23:53:00
8:53 PM,86.0,64.0,48,29.99,10.0,SSW,9.2,-,N/A,,Scattered Clouds,200,2013-06-24 00:53:00
9:53 PM,84.0,64.9,53,30.02,10.0,SSW,12.7,-,N/A,,Partly Cloudy,200,2013-06-24 01:53:00
10:53 PM,82.9,64.9,54,30.04,10.0,SSW,11.5,-,N/A,,Partly Cloudy,210,2013-06-24 02:53:00
11:53 PM,78.1,64.0,62,30.05,10.0,SW,9.2,-,N/A,,Clear,230,2013-06-24 03:53:00